This is the latest recevied weather packets stored in our database for station/object KG4GJX. If no packets are shown the sender has not sent any weather packets the latest 10 day(s).
| Time | Temp. | Humidity | Pressure | Rain* | Wind** | Luminosity | Snow |
|---|---|---|---|---|---|---|---|
| 1788189002 | 30° C | 70% | 1022.6 hPa | 0 mm | - | - | - |
| 1788188340 | 29.44° C | 74% | 1022.6 hPa | 0 mm | - | - | - |
| 1788187677 | 28.89° C | 77% | 1022.6 hPa | 0 mm | - | - | - |
| 1788187014 | 28.89° C | 81% | 1022.6 hPa | 0 mm | - | - | - |
| 1788186352 | 28.33° C | 84% | 1022.6 hPa | 0 mm | - | - | - |
| 1788185689 | 27.22° C | 88% | 1022.6 hPa | 0 mm | - | - | - |
| 1788185027 | 26.67° C | 99% | 1022.3 hPa | 0 mm | - | - | - |
| 1788184365 | 25.56° C | 100% | 1022.3 hPa | 0 mm | - | - | - |
| 1788183702 | 25° C | 100% | 1022.6 hPa | 0 mm | - | - | - |
| 1788183040 | 24.44° C | 100% | 1022.3 hPa | 0 mm | - | - | - |
| 1788181718 | 23.89° C | 100% | 1022.3 hPa | 0 mm | - | - | - |
| 1788181055 | 23.33° C | 100% | 1022 hPa | 0 mm | - | - | - |
| 1788180392 | 22.78° C | 100% | 1022.3 hPa | 0 mm | - | - | - |
| 1788179730 | 22.22° C | 100% | 1022 hPa | 0 mm | - | - | - |
| 1788179068 | 21.67° C | 100% | 1022 hPa | 0 mm | - | - | - |
| 1788177745 | 20.56° C | 100% | 1021.6 hPa | 0 mm | - | - | - |
| 1788177095 | 20° C | 100% | 1021.6 hPa | 0 mm | - | - | - |
| 1788175100 | 20° C | 100% | 1021.3 hPa | 0 mm | - | - | - |
| 1788174438 | 20° C | 100% | 1020.9 hPa | 0 mm | - | - | - |
| 1788172455 | 20.56° C | 100% | 1020.9 hPa | 0 mm | - | - | - |
| 1788171132 | 20° C | 100% | 1020.6 hPa | 0 mm | - | - | - |
| 1788169150 | 20.56° C | 100% | 1020.6 hPa | 0 mm | - | - | - |
| 1788167827 | 20.56° C | 100% | 1020.3 hPa | 0 mm | - | - | - |
| 1788163865 | 21.11° C | 100% | 1020.3 hPa | 0 mm | - | - | - |
| 1788163202 | 21.11° C | 100% | 1020.3 hPa | 0 mm | - | - | - |
* Rain latest hour (hover to see other rain measurements)
** Current wind speed in m/s (hover to see current wind gust speed)